Theta_e
310 310 310 310 309 309 308 307 308 307 306 304 305 304 304 304 303 303 303 302 302 302 303 304 305 307 309 308 307 307 306 306 306 306 306 304 303 304 304 305 306 306 306 305 305 306 306 305 305 306 306 306 304 303 303 302 301 300 300 300 300 301 301 301 300 299 299 298 298
311 311 311 311 310 309 308 308 308 307 306 304 304 303 302 303 303 303 302 301 302 303 304 306 308 308 308 306 306 306 306 305 304 303 302 301 300 300 301 302 302 303 303 303 303 304 304 304 304 304 304 304 303 302 302 302 301 300 300 299 300 300 301 301 300 299 298 297 297
310 311 311 310 309 308 307 307 306 305 304 303 303 303 302 303 303 303 302 302 302 303 305 308 308 307 305 304 304 304 303 302 301 300 300 299 298 299 299 300 300 301 302 301 301 301 302 302 303 304 304 302 302 302 302 302 302 301 300 299 300 301 301 300 300 299 298 298 296
311 311 310 308 307 306 306 307 306 304 303 302 302 302 303 304 303 302 302 301 302 303 304 306 306 305 303 303 302 302 301 301 300 299 299 298 298 298 298 298 299 299 299 299 299 299 300 300 302 302 302 301 301 302 301 302 301 301 300 300 301 301 300 300 299 299 298 297 296
311 311 309 309 307 306 306 306 305 304 303 302 303 303 303 303 302 302 302 303 303 303 303 303 304 303 302 302 301 300 300 301 301 300 299 299 299 298 298 298 298 298 298 298 298 298 299 299 301 301 301 301 301 301 301 301 301 301 300 300 300 300 299 298 298 298 297 296 295
310 310 310 309 308 307 306 305 304 303 303 303 302 303 302 303 303 303 303 302 302 302 302 303 303 303 302 301 301 300 300 300 300 299 299 299 299 298 298 297 297 298 298 298 298 298 299 300 301 301 301 301 300 300 300 301 301 300 299 299 298 298 298 297 297 296 296 295 294
311 310 309 309 309 308 307 305 304 302 302 302 302 302 302 302 302 301 301 302 302 302 303 305 303 303 302 301 300 300 299 299 299 298 298 299 298 298 298 298 298 297 298 298 298 298 299 299 300 301 301 301 300 299 299 300 300 299 298 297 297 296 296 295 295 295 294 294 293
310 310 309 309 308 308 307 305 304 303 302 303 302 302 301 301 301 301 301 302 302 303 303 303 301 300 300 300 300 299 299 299 299 298 298 298 298 297 297 297 298 298 298 298 298 298 299 300 300 300 299 299 299 298 297 298 298 298 297 296 295 295 294 294 294 294 294 293 293
310 309 309 308 308 308 307 305 304 303 303 302 302 302 301 301 301 301 302 302 302 302 302 301 299 299 299 299 299 299 299 299 298 297 297 298 297 297 297 298 297 297 297 298 298 298 298 299 299 298 298 298 297 297 296 296 296 296 295 294 294 293 293 293 293 293 293 293 293
309 309 308 308 308 308 307 306 304 302 301 301 301 302 302 303 302 302 302 303 303 302 301 299 299 298 299 298 299 299 299 299 298 297 297 297 297 297 297 297 297 297 297 297 298 298 298 299 298 297 297 297 296 295 295 295 295 294 294 294 293 293 293 293 293 293 293 293 293
309 308 308 308 308 308 307 306 304 303 302 302 302 302 303 304 303 303 303 303 302 301 300 299 299 299 298 298 298 298 298 298 298 297 297 297 297 296 296 296 297 297 296 297 297 298 298 298 297 296 296 295 295 295 295 295 294 294 294 293 293 293 293 292 292 293 293 293 292
309 308 308 308 308 308 307 306 305 303 302 302 302 303 303 303 302 303 303 302 301 300 300 299 299 299 299 299 299 299 298 297 297 297 296 295 295 295 296 296 296 296 296 296 297 298 298 298 297 296 295 294 295 295 295 294 294 294 293 293 293 293 292 292 292 292 292 292 292
308 308 308 308 307 307 306 306 304 303 303 303 303 303 303 303 303 303 302 301 301 301 300 300 300 299 299 299 299 298 298 297 297 297 296 295 295 295 295 296 295 296 296 296 296 297 298 297 297 296 295 294 294 294 294 294 294 294 293 293 293 292 292 291 291 292 292 292 292
308 308 308 307 307 307 306 305 305 304 304 303 304 304 304 304 304 304 303 302 302 301 301 300 300 300 300 299 298 297 297 297 297 296 296 295 295 295 295 295 295 295 295 295 295 296 297 297 296 295 295 294 293 293 293 294 294 294 294 293 293 292 291 291 291 291 292 292 291
308 307 307 307 307 306 306 305 305 305 305 304 304 304 305 305 305 304 304 302 302 302 302 301 301 300 299 298 297 297 296 297 297 296 296 295 295 295 295 295 295 294 295 295 295 295 296 295 295 295 294 294 293 293 293 294 294 294 293 293 292 292 291 290 290 291 291 291 291
307 307 307 307 306 306 306 306 306 306 306 305 305 305 305 305 305 304 304 303 303 303 302 301 301 299 299 298 297 297 297 297 297 296 296 295 295 295 295 295 295 294 294 294 294 294 294 294 294 294 294 294 294 293 293 293 293 293 292 292 291 291 290 290 290 290 290 291 291
307 307 307 306 306 306 306 307 307 307 307 307 306 306 306 305 305 304 304 304 303 303 302 301 301 300 299 299 298 297 297 297 297 296 296 295 295 295 295 294 294 294 294 294 294 294 293 293 293 293 293 294 294 294 293 293 292 292 291 290 290 290 290 291 290 289 290 290 290
307 307 306 306 306 306 306 307 307 308 307 307 307 307 306 306 305 304 304 304 303 302 301 300 300 299 299 298 298 298 298 297 296 296 295 295 294 294 294 294 294 294 294 294 294 293 292 292 292 293 293 293 293 293 293 292 291 290 289 288 288 288 288 289 288 289 290 290 290
306 306 306 306 306 306 306 308 307 308 308 308 308 307 306 305 304 304 304 303 303 303 302 301 300 299 298 298 298 299 299 296 296 295 294 293 293 293 293 293 293 293 294 293 293 292 292 292 292 293 293 293 292 292 291 291 290 289 288 288 288 288 288 288 289 290 290 290 290
306 306 306 306 306 306 307 307 308 308 309 309 308 308 306 305 304 304 303 303 303 303 302 301 300 299 298 297 298 298 298 297 296 295 294 293 293 292 292 292 292 292 293 293 292 292 292 292 293 293 293 293 292 291 291 291 290 290 290 290 290 289 289 290 290 290 290 290 290
306 306 306 306 306 307 307 307 308 308 309 309 308 307 306 305 304 304 303 303 303 303 302 301 300 300 298 298 297 297 297 297 295 294 293 292 292 292 292 292 292 293 293 292 292 292 292 292 292 293 293 293 292 292 292 292 292 291 291 292 291 291 290 291 291 290 290 290 290
306 306 306 307 307 307 308 308 308 309 309 309 308 307 306 305 304 303 303 303 303 303 302 301 300 300 299 298 297 297 296 296 294 293 293 292 292 292 292 293 293 292 292 292 292 292 292 293 293 293 293 293 293 293 293 293 293 293 292 292 292 291 291 291 291 291 291 290 290
306 307 307 307 307 307 308 308 308 309 309 308 308 307 306 305 304 303 303 303 303 303 302 301 300 299 298 297 296 296 295 294 292 292 291 291 291 291 292 293 293 293 292 293 293 293 293 293 293 293 294 294 293 294 294 294 294 294 293 293 292 292 291 291 291 291 291 291 291
306 307 307 307 307 308 308 308 309 309 308 308 307 307 306 305 304 303 303 303 303 302 302 302 301 299 297 296 296 295 294 293 292 291 290 291 291 291 292 293 293 293 293 293 295 295 295 295 294 294 294 294 294 294 294 294 294 294 294 293 293 293 292 292 292 292 292 291 291
306 306 307 307 307 307 308 308 308 308 308 308 307 307 306 304 303 303 302 302 302 302 302 301 300 299 297 296 295 294 293 292 292 291 290 290 291 291 292 293 293 293 295 297 301 302 301 299 297 296 295 295 295 294 294 295 294 295 295 294 294 294 293 292 292 292 292 292 293
307 306 306 306 307 307 307 308 308 308 308 307 307 306 305 304 303 303 302 302 302 302 302 301 301 300 299 296 294 293 292 292 292 292 291 291 291 291 292 293 293 294 297 302 305 306 305 303 301 299 296 295 295 295 295 295 294 295 295 295 295 295 294 293 292 292 292 292 293
306 306 306 306 306 307 307 308 308 308 308 307 306 306 305 304 303 302 302 302 302 302 302 302 302 302 300 296 294 292 292 292 292 291 291 291 291 291 292 293 293 296 300 306 307 307 306 306 304 302 299 295 295 295 295 295 294 294 295 295 295 295 294 293 292 292 292 291 291
306 306 306 306 306 307 307 308 308 307 307 307 306 305 305 304 303 302 302 302 302 302 302 302 302 302 300 296 293 292 292 292 292 292 292 292 292 292 292 293 294 298 303 308 308 308 307 307 306 304 301 298 296 295 295 295 295 295 295 295 294 293 292 292 291 291 291 291 292
306 306 306 305 306 306 307 308 307 307 307 306 305 305 304 303 302 302 302 302 302 302 303 303 303 302 299 296 293 292 292 291 292 292 292 292 292 292 293 294 296 301 306 309 309 308 308 308 307 306 304 301 297 296 295 295 295 295 294 294 293 291 290 290 290 290 291 292 292
306 305 305 305 305 306 306 307 307 307 307 306 305 304 303 303 302 302 301 301 302 302 303 303 301 300 298 295 293 293 292 292 292 292 292 292 292 293 294 296 297 302 307 309 309 309 309 308 308 307 305 303 298 295 294 294 294 294 294 293 290 289 289 289 289 290 291 292 292
306 305 305 305 305 306 306 307 308 307 307 306 305 304 303 302 302 301 301 301 302 303 303 301 299 297 296 295 294 293 292 292 292 293 293 293 295 295 295 295 298 302 307 309 309 309 309 309 308 307 306 303 299 295 293 293 293 292 292 291 289 289 289 289 290 290 291 291 292
306 306 305 305 305 306 306 307 307 307 306 306 305 304 303 302 302 302 302 302 302 302 301 299 298 296 295 294 293 293 292 292 292 293 294 294 294 294 294 295 297 302 307 309 309 309 309 309 308 307 306 304 299 295 292 292 292 291 291 290 289 289 290 291 291 290 291 291 291
306 306 305 305 305 306 306 307 307 307 306 305 305 304 303 302 302 302 302 303 303 302 300 299 298 296 295 294 293 293 293 293 294 295 296 295 294 294 295 296 298 303 308 309 309 309 309 309 308 307 306 304 299 294 291 291 291 290 290 289 289 289 289 290 290 290 290 290 291
306 305 305 305 305 306 306 307 307 307 306 305 304 304 303 302 301 302 302 303 303 302 300 299 298 296 295 294 294 294 294 295 295 294 294 294 294 294 295 295 297 304 309 310 309 309 309 309 308 307 306 304 297 293 291 291 290 290 289 289 288 288 288 289 289 289 289 290 290
306 305 305 305 305 306 306 307 306 306 305 304 304 304 303 302 302 302 303 304 304 302 300 298 297 296 295 294 294 294 295 295 294 294 294 294 295 295 296 295 297 303 309 310 310 309 309 309 308 307 305 302 295 292 291 291 289 289 288 288 288 288 288 288 288 288 288 289 289
306 305 305 305 305 305 306 306 306 306 305 304 304 303 303 302 302 303 304 306 305 303 300 299 297 296 295 294 294 295 295 294 294 294 294 295 295 295 295 295 297 303 309 310 310 309 309 309 308 306 304 298 294 291 291 290 289 288 288 288 288 288 287 287 287 287 287 288 289
306 306 305 305 305 305 306 306 306 305 305 304 303 303 303 302 302 304 305 306 303 301 300 299 297 296 295 295 295 295 295 295 295 295 295 296 296 295 295 295 296 301 307 310 310 309 309 309 308 306 301 295 292 291 291 290 289 288 288 288 287 287 286 286 286 287 287 288 289
306 306 305 305 305 305 305 306 305 305 304 304 304 303 303 302 303 305 306 306 302 300 299 298 297 296 295 295 295 295 295 295 296 296 296 297 296 296 295 295 295 299 305 310 310 309 309 309 308 305 300 294 292 291 291 291 289 288 288 287 286 286 286 286 286 287 288 291 296
307 306 306 305 305 305 305 305 306 305 305 304 304 303 303 303 304 305 306 305 302 300 299 298 297 296 296 296 296 295 295 295 297 297 297 296 296 297 297 295 295 299 305 309 309 309 309 309 308 305 301 295 292 292 292 291 289 288 287 287 287 286 286 286 286 287 290 293 301
307 306 306 305 305 305 305 305 305 305 305 304 304 303 303 303 305 306 306 305 303 301 300 299 297 297 297 298 296 295 295 295 296 297 297 297 298 301 301 296 295 298 304 309 309 309 309 309 307 305 301 295 292 292 292 291 290 288 287 287 287 287 287 286 286 287 289 292 299
307 306 306 306 305 305 305 305 305 305 305 305 304 304 304 304 305 306 305 305 303 302 301 300 298 298 298 299 297 295 294 295 295 296 297 299 300 302 302 296 295 297 302 307 308 309 309 309 307 305 301 296 292 292 292 292 291 289 288 287 288 288 288 287 287 287 288 288 292
Wind_Speed
8 8 8 8 7 6 5 4 4 4 4 4 4 4 4 4 4 4 3 3 4 3 3 3 3 4 5 6 6 7 7 7 7 7 8 7 7 7 7 7 7 7 6 6 6 5 5 5 5 4 4 4 4 4 4 4 5 5 6 6 6 6 7 8 7 6 6 5 4
9 9 9 9 8 6 5 4 4 4 4 3 4 4 4 4 4 4 4 4 3 3 3 3 4 5 6 6 6 7 7 7 7 7 7 7 7 7 7 6 6 6 6 6 6 5 5 5 5 4 4 4 4 4 4 4 5 6 7 7 5 5 6 7 7 6 6 5 4
9 9 9 9 8 6 5 5 5 5 4 3 4 4 4 4 4 4 4 4 4 4 4 4 5 5 6 6 6 6 6 6 7 7 7 6 7 7 6 7 7 6 6 6 5 5 5 5 5 4 4 4 4 5 4 4 5 5 6 6 4 5 5 6 5 5 5 4 5
9 9 9 9 8 8 7 5 6 6 5 4 4 4 4 4 4 4 4 4 4 4 4 4 5 5 5 6 6 6 6 6 7 7 7 7 7 7 7 7 7 7 6 6 6 5 5 5 4 4 4 4 5 5 4 4 5 5 5 4 4 5 5 5 4 4 5 4 5
10 9 9 9 9 8 7 6 7 6 5 4 5 5 5 4 4 4 4 5 5 5 5 5 5 5 5 6 6 6 6 6 7 7 7 7 7 7 7 7 7 7 6 6 6 6 6 6 4 4 4 4 4 4 4 5 6 5 5 4 4 5 5 5 4 4 4 4 4
10 10 9 9 9 8 6 6 7 6 6 5 6 6 6 5 5 5 5 5 5 6 6 7 6 6 6 6 7 6 6 6 6 6 7 7 7 7 7 7 7 7 6 6 7 7 7 6 5 4 4 4 4 3 4 5 6 7 6 5 5 4 4 5 4 4 5 6 6
11 10 10 10 10 9 7 6 6 6 6 6 7 8 7 6 6 6 6 6 6 6 6 6 6 6 6 6 6 6 6 6 6 6 7 7 7 7 7 7 7 7 7 7 7 7 6 6 5 5 4 4 4 3 4 5 6 7 7 6 5 4 4 5 4 4 6 8 8
11 11 11 11 11 10 9 7 6 6 6 6 7 8 8 8 8 7 7 6 6 6 6 5 6 6 6 7 7 7 6 6 6 6 6 7 7 8 7 7 8 7 7 7 7 7 6 5 5 4 4 4 4 4 5 7 8 9 9 7 5 4 4 4 4 5 7 9 9
11 11 11 11 11 11 10 8 7 6 7 7 8 8 9 9 9 8 8 7 6 6 6 5 6 6 7 7 7 7 7 7 7 6 6 7 8 8 8 7 8 7 7 6 7 7 7 5 4 4 4 4 4 5 6 8 10 10 9 7 5 5 4 4 5 6 7 9 9
12 12 12 11 11 11 10 8 7 7 8 8 9 9 9 9 9 8 7 7 7 7 6 5 6 7 7 7 7 7 6 6 6 7 7 7 8 8 8 7 8 7 7 6 6 7 7 6 6 5 5 5 5 6 7 9 10 10 8 5 5 6 6 5 6 6 7 9 9
13 12 12 11 11 11 10 9 8 8 8 9 9 9 9 9 8 7 7 7 8 8 7 6 7 7 7 7 6 6 6 6 6 7 7 7 7 7 7 7 8 7 7 6 6 6 6 6 7 7 6 6 6 7 8 9 10 9 8 5 6 7 7 6 6 7 7 9 9
13 13 13 12 12 11 10 9 8 8 8 9 10 9 9 8 8 7 8 8 9 8 7 7 7 7 7 6 6 6 6 6 7 7 7 7 7 7 7 7 8 8 7 7 6 5 6 7 8 8 8 7 6 7 8 9 10 9 8 6 7 7 7 7 7 6 6 8 9
14 14 13 13 12 11 10 9 8 8 8 10 10 9 8 8 8 8 8 9 9 8 7 6 7 7 7 6 6 6 6 6 7 7 7 7 7 7 7 7 8 7 7 6 6 6 7 8 9 9 9 7 6 6 7 9 9 9 9 8 8 8 7 7 7 7 7 8 9
14 14 13 13 13 11 10 9 8 8 9 10 9 9 8 8 8 8 8 9 9 8 8 7 6 6 6 6 6 6 6 7 7 7 7 7 7 7 7 7 7 7 7 6 6 7 8 8 9 9 9 9 8 7 8 8 9 9 9 9 9 8 8 7 7 7 8 9 8
14 14 14 13 12 11 10 9 8 8 9 10 9 8 8 7 8 8 8 9 9 8 8 7 6 6 6 6 7 7 7 7 7 8 7 7 7 7 7 7 7 7 7 6 6 6 7 8 9 9 9 9 9 8 8 8 8 8 8 9 9 8 7 7 7 8 8 9 8
15 14 14 13 12 11 10 9 8 8 9 9 9 8 8 7 7 8 8 9 8 8 7 7 7 6 5 6 7 7 7 7 8 8 8 7 7 7 7 7 7 7 7 7 7 6 6 7 8 9 9 10 9 9 8 8 8 8 8 8 8 8 7 7 7 8 8 8 8
15 15 14 14 13 12 11 10 9 9 9 10 9 9 8 7 7 7 8 9 8 8 8 8 7 6 6 6 6 6 6 7 7 7 7 7 7 7 7 7 7 7 8 8 8 7 7 7 7 8 9 9 9 9 8 8 8 8 8 7 7 7 7 7 7 7 8 8 7
15 15 15 14 13 13 12 11 10 10 10 11 10 9 9 8 8 8 8 9 9 9 9 8 7 6 6 6 6 5 6 7 7 7 7 7 7 7 7 7 7 7 7 8 8 8 8 8 8 8 8 9 8 8 8 8 8 7 7 7 6 6 6 6 7 7 7 8 7
16 16 15 14 13 13 12 12 11 11 11 11 11 10 10 9 9 9 8 8 9 10 10 9 8 7 7 7 6 5 5 6 7 6 6 6 7 7 8 8 7 7 8 8 8 8 8 8 8 9 9 8 8 8 8 8 7 7 7 7 7 6 6 6 6 7 7 7 7
16 16 16 15 14 13 12 12 11 11 12 12 12 12 11 10 10 9 9 9 9 10 10 9 8 7 7 7 6 6 5 4 6 6 6 6 7 8 8 8 8 8 8 8 8 8 8 9 9 9 9 9 9 8 8 8 7 7 7 7 7 7 7 7 7 7 7 7 7
16 16 16 15 15 14 12 11 11 12 12 12 13 12 12 10 10 10 10 10 10 10 10 9 9 8 7 7 7 5 4 4 5 6 7 7 8 8 9 9 9 8 8 8 8 8 9 9 9 9 9 9 9 9 8 8 8 8 7 7 7 7 7 7 7 7 7 7 7
16 16 16 16 15 14 12 12 12 12 13 13 13 12 12 11 10 10 9 9 10 10 10 9 9 8 8 7 7 5 4 4 5 6 6 7 8 8 8 9 9 9 9 8 9 9 9 9 9 9 9 9 9 9 9 9 9 8 8 8 7 7 7 7 7 7 7 7 7
16 16 16 15 15 14 13 12 12 13 13 13 13 12 12 11 10 9 9 9 9 9 9 8 8 7 7 6 6 6 6 5 5 6 7 7 7 8 8 9 10 10 9 9 9 9 9 9 9 9 9 9 9 9 9 9 9 9 9 9 8 8 7 7 7 7 7 7 7
16 16 15 14 14 14 13 13 13 13 13 13 13 13 12 11 10 9 9 9 9 9 9 7 7 7 6 6 6 7 7 7 7 7 7 8 8 8 8 9 9 9 9 8 9 10 10 9 8 8 8 9 9 8 8 9 9 9 9 9 9 8 7 7 7 7 7 7 7
16 16 15 14 15 14 14 13 13 13 14 14 13 13 12 11 10 10 9 9 9 9 9 8 7 6 6 6 6 7 8 8 9 9 8 8 8 8 8 8 8 8 8 9 14 15 14 12 10 9 8 8 8 8 8 8 9 9 9 9 9 8 8 7 7 7 7 7 6
16 16 16 16 16 15 14 13 13 13 14 14 13 13 12 11 10 10 10 10 9 9 9 9 8 7 6 6 6 7 7 8 9 9 9 9 9 8 8 8 7 6 8 12 17 19 18 17 15 12 10 8 8 8 8 8 8 8 9 9 9 9 8 8 7 6 5 4 3
16 16 16 16 16 16 15 13 13 14 14 14 14 13 12 11 10 10 10 10 10 9 9 8 7 7 7 6 7 7 7 7 8 9 10 10 10 9 8 7 6 6 9 16 20 21 20 20 18 16 12 9 9 8 8 7 8 8 8 8 8 8 8 8 7 5 3 2 1
17 17 17 17 17 16 15 14 14 14 15 15 14 13 12 11 11 10 10 10 10 9 8 7 6 6 5 5 7 7 8 8 8 8 9 9 10 9 9 7 6 8 12 19 21 21 21 21 20 18 15 11 9 8 8 8 7 7 7 7 7 7 7 6 5 4 4 3 3
18 17 17 18 18 17 16 15 15 15 15 15 14 13 12 11 11 11 10 10 10 9 8 6 5 5 5 6 7 7 8 8 8 8 8 9 9 9 8 8 7 10 16 21 21 21 21 21 21 20 18 14 9 7 7 7 7 6 6 6 6 6 6 5 4 4 4 5 5
18 18 18 19 18 17 17 16 15 15 15 15 14 14 13 12 11 11 11 11 11 9 8 7 5 6 6 7 8 8 8 7 8 8 9 10 9 8 8 8 8 11 16 22 22 21 21 21 21 20 19 16 11 8 6 6 6 6 6 5 5 5 5 5 5 5 5 6 6
19 19 19 19 19 18 17 16 15 15 15 15 15 14 13 12 12 12 11 11 10 9 8 7 7 7 8 8 8 8 8 7 8 8 9 10 10 9 8 8 8 11 16 22 21 21 21 21 21 20 19 17 12 8 6 6 6 6 5 5 5 5 5 5 5 6 6 7 7
19 19 19 19 19 18 18 16 15 15 16 16 16 15 13 12 12 11 11 10 10 9 8 6 7 8 9 9 8 8 8 8 9 9 9 10 9 8 7 7 7 10 15 21 21 21 21 21 21 20 19 17 12 9 7 6 6 6 6 6 6 6 5 5 5 6 7 7 7
20 20 20 20 19 19 18 17 15 15 16 17 16 15 14 12 11 10 10 10 10 9 8 8 9 10 10 10 9 9 9 9 10 10 10 10 9 8 7 7 7 10 16 21 21 21 21 21 21 20 19 17 12 9 7 6 6 5 5 5 5 5 5 6 6 6 6 6 6
20 20 20 20 19 19 18 17 16 16 16 17 16 15 14 12 12 12 12 11 10 8 7 8 9 9 9 10 10 10 10 10 10 10 10 9 9 8 7 6 6 11 17 21 21 21 21 21 21 20 19 16 11 8 7 7 5 5 5 5 4 4 4 5 6 6 6 6 5
21 21 20 20 20 19 18 17 16 16 17 17 17 16 14 13 13 13 13 13 10 8 7 7 7 8 8 8 9 10 10 11 10 9 9 9 9 9 8 6 6 12 18 21 21 21 21 21 21 20 18 14 9 7 7 7 6 6 6 6 5 4 4 4 4 5 5 6 6
21 21 21 21 20 20 18 17 16 17 18 18 17 16 15 13 12 13 13 14 12 9 8 8 8 8 8 8 8 9 10 11 10 10 9 9 9 9 8 7 7 12 18 21 21 21 21 21 21 19 16 11 7 6 6 6 6 6 6 6 5 4 4 4 4 4 5 5 6
21 21 21 21 21 20 19 17 17 17 18 18 17 16 15 14 13 13 14 13 11 10 9 10 10 10 9 9 8 8 8 11 11 10 10 10 10 10 9 7 7 11 17 21 21 21 21 21 21 19 15 9 7 6 6 5 5 5 5 5 4 3 3 3 4 4 5 5 6
21 21 21 21 21 21 20 18 18 18 18 18 17 16 15 14 14 14 14 12 9 9 10 10 10 10 10 10 10 10 10 10 11 11 10 10 10 10 9 8 7 10 14 20 21 21 21 22 21 18 14 9 7 6 6 5 5 5 5 5 4 3 2 2 3 4 5 6 8
21 21 21 21 21 21 20 19 18 18 18 18 18 17 15 14 13 13 13 12 9 9 10 10 10 10 10 11 10 9 9 10 11 11 11 10 10 10 10 9 7 9 13 19 21 22 22 22 21 18 15 10 8 7 6 6 5 5 5 4 4 3 2 2 2 3 4 6 11
20 20 21 21 21 21 21 20 19 18 18 18 18 17 16 15 14 13 12 11 10 10 10 10 11 11 11 11 10 10 10 9 10 11 11 10 11 12 12 9 8 9 12 19 21 22 22 22 21 19 15 9 7 6 6 6 6 6 5 5 4 4 3 2 2 2 3 4 9
19 20 20 20 21 21 21 20 19 18 17 18 18 17 16 15 14 13 12 10 11 10 10 10 11 11 11 12 10 10 10 9 9 10 10 11 11 12 12 9 8 9 11 17 20 22 22 22 21 19 15 10 7 6 6 6 7 6 6 5 5 5 4 3 2 1 1 1 3
Wind_Direction
145 141 139 140 141 142 142 140 139 137 137 138 138 135 130 123 120 119 117 113 112 112 110 106 105 104 102 103 105 106 106 106 106 105 106 106 110 113 115 116 118 118 117 113 110 108 106 105 104 103 101 97 92 88 86 88 90 89 89 89 91 91 91 90 89 87 85 84 87
145 142 141 142 142 141 139 139 138 137 136 135 130 128 125 123 123 122 120 115 115 115 113 109 106 106 107 107 108 109 110 109 106 104 102 101 105 107 110 112 113 113 113 110 110 110 110 109 109 108 104 98 91 87 85 86 90 90 89 89 91 92 91 89 89 89 87 86 84
145 143 142 142 143 143 142 142 143 141 137 130 124 122 122 122 123 123 121 119 114 111 110 112 111 111 110 109 107 106 106 107 104 102 100 100 100 103 105 107 106 105 104 105 106 107 109 110 110 109 105 97 92 90 88 86 89 89 89 88 92 92 92 92 92 90 87 82 77
144 142 142 142 143 144 145 146 145 142 137 129 122 119 118 121 122 122 120 115 111 110 112 116 116 114 112 110 106 103 101 103 103 103 103 102 101 102 102 102 101 100 99 98 100 102 103 104 104 103 100 95 93 92 93 93 89 87 87 86 87 89 90 92 89 88 85 81 75
144 143 142 143 144 144 144 144 143 140 134 126 121 119 120 121 122 121 119 116 115 117 118 118 117 115 112 109 107 104 101 101 103 104 105 104 103 102 100 99 101 101 100 98 99 100 100 99 98 95 93 90 90 92 94 96 92 89 86 80 79 82 85 86 84 83 82 79 71
143 141 141 142 141 141 140 141 138 134 129 123 123 124 126 129 128 126 125 123 121 120 118 118 116 115 112 108 107 106 104 102 103 105 106 106 104 101 99 98 100 101 101 101 100 100 100 101 99 97 93 90 87 89 93 97 94 91 87 80 75 76 79 80 81 81 79 76 71
141 140 141 141 142 141 141 140 133 127 123 122 125 129 132 135 133 130 128 126 123 122 121 121 119 117 115 112 111 109 108 106 103 103 104 106 103 101 100 99 99 100 102 103 102 101 101 102 103 103 100 98 92 85 86 92 93 91 86 80 74 70 71 74 78 80 80 77 72
140 140 141 142 143 143 142 140 133 127 124 125 130 133 136 136 133 131 128 124 125 125 125 122 121 120 119 118 117 115 113 109 106 104 103 105 102 101 101 100 100 100 102 104 104 102 102 101 104 105 105 103 98 90 86 88 88 87 85 82 74 67 65 70 74 78 79 79 74
141 142 142 143 143 144 144 140 132 128 128 130 134 136 137 137 135 132 130 128 128 127 124 122 120 119 117 117 118 118 116 114 111 108 106 105 105 104 102 101 100 100 100 101 102 102 101 101 101 103 104 105 100 94 88 86 85 84 84 83 79 72 67 68 73 77 80 80 77
143 143 144 144 145 145 142 136 128 125 127 131 135 138 139 139 136 134 133 132 128 126 124 124 122 119 117 117 118 118 118 117 114 111 108 106 106 106 105 105 104 103 102 100 100 101 101 101 100 98 97 98 97 92 87 85 85 85 84 86 85 79 74 69 74 78 81 82 80
144 145 146 147 147 145 141 133 126 125 129 134 137 139 139 139 137 135 132 129 126 127 128 129 125 123 121 120 120 119 118 117 114 111 108 104 104 104 105 106 106 105 105 104 103 102 102 103 102 99 95 93 92 90 88 87 88 89 89 89 88 86 82 75 76 80 83 84 81
145 147 148 149 148 145 140 134 130 131 133 137 139 140 140 139 138 134 131 127 128 129 131 130 127 126 125 124 123 121 118 116 114 111 107 104 103 102 102 103 103 104 105 106 105 106 107 107 106 102 97 92 92 93 94 94 94 95 94 93 91 89 87 82 80 82 84 84 82
147 148 149 150 148 144 138 134 133 135 138 140 142 142 141 140 138 135 132 130 131 131 131 129 127 127 127 127 126 123 120 117 113 111 108 106 103 102 101 101 102 103 104 106 107 109 111 111 109 106 102 97 97 99 101 102 102 102 101 99 95 93 91 89 87 86 84 83 84
148 150 151 151 148 143 138 136 137 139 141 143 143 143 141 140 138 136 134 133 132 132 131 129 127 128 130 130 128 125 122 118 113 110 107 105 104 102 102 102 103 104 105 106 107 110 111 112 111 109 108 106 105 105 105 106 107 108 107 105 102 100 98 96 93 91 88 87 87
149 151 151 150 148 144 140 139 140 142 144 144 144 143 141 140 139 137 135 134 133 132 130 128 128 128 128 128 126 124 121 117 114 111 108 104 103 103 104 105 105 106 108 108 106 107 109 111 112 112 112 112 111 110 108 107 108 108 109 109 109 108 106 103 98 95 95 95 93
150 151 151 150 148 146 143 142 143 145 145 145 144 143 140 139 138 137 136 135 134 131 130 129 129 129 127 125 124 121 118 116 115 113 111 109 106 106 107 110 111 112 112 110 106 103 101 105 110 113 114 115 115 113 111 109 107 107 108 109 110 110 109 106 101 99 99 100 100
151 152 152 151 149 148 146 146 145 146 146 145 144 142 141 139 138 138 139 139 136 133 131 130 132 131 128 126 123 121 119 118 117 117 116 114 113 112 113 116 118 119 117 113 108 104 101 101 106 111 113 115 115 113 111 108 106 105 105 105 105 106 105 103 101 101 100 101 104
152 153 153 152 151 150 148 147 146 146 146 145 144 143 141 140 139 140 140 141 137 134 132 132 132 131 130 129 126 123 121 121 119 117 116 115 115 115 116 119 121 121 119 116 113 110 108 107 109 110 112 113 112 110 108 105 103 102 101 99 99 99 99 99 100 101 103 105 108
154 155 155 155 154 151 149 148 147 147 146 146 144 142 141 141 141 140 141 141 138 136 133 132 131 130 129 128 127 125 123 121 118 113 110 110 112 114 117 120 121 120 118 115 114 114 113 113 113 113 112 110 108 105 102 101 100 99 98 98 98 97 98 99 100 103 105 109 111
155 156 157 157 155 153 150 148 147 147 147 146 144 142 141 142 141 141 142 143 140 136 133 132 131 130 128 125 124 122 120 115 111 109 108 109 112 116 120 122 122 120 118 116 115 115 115 116 115 114 113 111 108 105 103 101 100 99 99 99 99 99 100 101 101 102 104 107 109
157 158 159 158 157 153 150 148 148 148 146 145 143 143 142 142 143 143 144 144 140 136 133 132 132 131 129 125 122 119 114 103 105 108 112 113 116 120 123 124 123 120 119 117 117 117 117 117 117 116 114 113 112 110 109 106 103 101 99 99 99 99 100 101 102 103 104 105 107
157 159 160 159 157 153 150 149 150 148 147 145 144 143 143 144 144 144 144 142 139 136 134 134 135 134 132 127 122 116 106 94 99 107 113 116 119 122 125 124 123 121 120 120 120 119 118 117 116 115 115 114 113 112 112 110 108 105 103 101 101 100 100 101 102 104 105 106 106
158 159 160 159 156 153 150 151 151 150 147 145 145 145 145 145 144 143 142 141 139 138 137 137 135 133 129 123 118 112 104 97 99 104 111 116 119 122 123 123 123 124 124 125 124 122 120 117 115 114 114 114 113 113 113 113 112 111 110 108 105 103 102 103 104 105 106 107 108
157 159 160 159 155 153 152 153 153 151 148 147 147 146 146 145 144 143 143 142 141 140 140 139 135 128 120 113 113 113 112 109 109 110 112 116 120 122 123 123 124 126 128 131 132 131 128 123 120 117 115 114 114 114 115 116 116 117 116 114 113 110 108 106 107 108 110 111 113
157 159 159 158 156 155 155 155 153 152 150 149 148 147 146 145 146 146 145 145 144 144 142 139 133 123 114 109 112 115 118 120 120 120 119 119 121 122 123 123 126 129 133 136 137 135 133 130 128 124 120 118 116 115 116 117 119 120 120 120 119 116 113 110 109 110 113 117 122
157 158 159 159 158 157 157 156 153 151 150 150 149 148 147 147 148 148 147 147 148 147 145 141 134 126 119 114 116 118 121 124 126 127 126 126 123 123 123 126 130 134 139 142 140 137 134 132 130 128 125 122 121 120 118 118 120 121 122 122 122 121 120 118 116 114 112 111 120
157 159 161 161 160 160 159 156 152 150 150 151 151 150 150 150 150 150 150 150 151 150 148 143 137 131 126 120 122 124 126 128 130 130 130 130 128 127 128 131 135 140 143 145 141 139 136 134 132 130 128 125 125 125 124 124 123 122 122 123 123 124 124 124 122 119 111 91 74
159 160 162 162 163 162 160 156 151 150 151 153 153 152 152 152 152 153 153 154 153 152 150 147 143 136 130 126 129 131 132 133 133 132 132 131 130 131 133 137 142 146 146 145 142 140 138 137 135 133 131 128 126 125 126 127 126 125 124 123 123 123 123 123 123 121 117 109 93
160 162 163 164 164 163 161 158 154 152 152 153 153 152 153 153 155 156 156 156 156 156 155 154 147 139 133 133 135 134 134 134 134 133 131 130 131 133 137 142 145 147 147 146 143 142 141 139 138 136 134 131 128 127 128 129 128 127 125 124 123 121 121 121 121 121 119 113 101
162 163 164 165 164 163 162 161 156 153 152 152 153 153 154 155 157 158 159 159 160 160 159 153 145 141 139 140 139 137 137 137 136 134 133 133 134 138 141 145 148 149 148 148 146 144 143 142 140 138 135 132 128 127 128 130 129 128 126 125 122 122 123 126 125 122 116 108 100
164 165 165 165 164 164 163 161 156 154 153 153 154 154 155 158 160 162 163 163 163 161 155 146 141 141 142 143 141 140 139 138 137 137 137 138 140 142 144 146 149 150 150 150 148 147 146 144 142 140 138 134 131 129 130 131 130 129 128 128 127 127 128 127 124 118 113 107 103
165 165 165 165 165 164 163 160 157 154 154 155 155 156 157 160 162 163 164 164 162 158 152 144 143 143 143 143 142 141 141 141 142 143 143 142 142 143 144 147 151 152 152 153 151 150 148 146 144 142 140 137 132 130 129 130 128 127 126 127 129 131 130 127 122 118 115 112 111
165 166 166 165 164 163 162 160 157 155 155 156 157 157 158 160 162 163 165 165 162 158 154 150 149 148 148 147 146 145 145 145 146 146 144 143 142 142 143 147 152 155 155 155 153 152 150 148 146 144 142 138 133 129 128 127 124 123 123 124 127 128 128 126 125 124 123 122 120
165 166 166 165 164 163 162 161 157 156 156 157 158 159 159 160 162 165 167 168 164 160 155 152 152 152 151 150 149 149 149 149 147 146 144 142 141 141 143 151 157 159 158 156 155 154 152 150 148 145 142 138 132 128 126 124 122 121 121 123 123 123 123 124 128 130 130 129 126
165 166 166 165 164 163 162 160 157 156 157 159 160 160 161 162 165 167 168 167 162 157 152 150 148 148 148 150 150 150 150 148 146 145 144 143 141 142 145 154 161 162 161 157 157 155 153 151 149 145 141 135 130 127 125 124 123 123 124 125 124 122 121 122 128 132 134 134 131
166 166 166 166 166 164 163 159 157 157 159 161 161 162 162 164 167 168 168 164 159 154 150 149 147 146 148 151 153 152 151 149 148 147 147 145 144 145 149 157 164 165 163 159 158 156 154 152 148 144 139 132 128 125 124 123 124 125 126 127 129 129 128 128 133 136 138 137 135
166 166 166 166 166 166 164 161 158 159 161 163 163 163 163 164 167 168 167 163 156 153 152 151 150 151 154 157 158 156 153 150 149 149 149 150 148 148 151 158 166 166 164 159 159 157 155 152 147 142 136 129 128 125 123 121 122 123 125 127 130 132 132 133 138 140 142 142 141
167 167 166 167 167 167 166 164 161 161 162 163 163 163 164 164 167 169 168 163 156 154 155 154 155 156 158 159 157 156 154 152 152 151 152 153 152 151 153 158 168 169 165 160 160 158 156 152 147 142 138 132 132 131 128 124 124 125 126 127 127 124 123 129 138 143 147 150 150
167 167 167 167 168 168 168 167 165 164 163 163 163 164 165 166 168 169 167 161 156 155 156 156 157 158 157 157 154 153 154 155 155 154 154 156 156 156 155 157 167 169 165 161 161 159 156 152 147 144 140 135 135 134 131 129 127 127 127 127 124 121 120 124 137 148 154 156 155
167 168 168 168 168 169 169 169 167 165 163 163 164 165 166 168 169 168 165 157 155 156 157 157 157 157 156 155 153 154 156 159 158 157 157 158 160 159 158 156 165 167 164 162 162 160 157 153 149 146 142 136 135 134 133 131 129 129 130 131 131 130 130 132 137 148 157 161 156
168 168 169 169 169 170 170 170 168 166 164 164 165 166 167 168 168 166 163 156 157 158 158 157 157 157 156 155 154 155 158 160 161 161 160 160 162 161 159 156 163 165 164 163 163 161 159 155 151 148 145 138 137 135 134 133 132 134 137 140 139 139 139 142 139 140 149 164 156